Content
SEND FEEDBACK

Daily
Averages
Monthly
Summary
United States of America

PACIFIC GROVE, CALIFORNIA


Home > North America > United States > California
Elevation: 331 feet     Latitude: 36 36N     Longitude: 121 55W

WEATHER
 
SELECT A DAY
Number of Records: 195,331;   Date Range: 7/1/96 - 10/22/14
 
SHARE

PRINT THIS DATA

[ ← Previous Day ]
WEATHER ALMANAC - JANUARY 18, 2013
[ Next Day → ]
[ °C ]   °F
Weather ElementAverageHighLow
Temperature50.5 °F66.9 °F (1:54 pm)39 °F (6:54 am)
Dewpoint31.9 °F36 °F (10:54 am)28 °F (12:54 pm)
Humidity52.3 %77 % (1:54 am)25 % (12:54 pm)
Barometer30.18 in30.23 in (9:54 am)30.16 in (4:54 am)
Wind Speed2.6 mph5.8 mph (10:54 pm)
Weather ElementAverage
Visibility10 mi
Wind DirectionENE (82.2 °)

Weather ElementTotal
Precipitation---
Heating Degree Days12.1 (Base 65)
Growing Degree Days3 (Base 50)
Averaged from 23 records on January 18, 2013
WEATHER CONDITIONS BREAKOUT
WIND DIRECTION BREAKOUT
WEATHER BY HOUR - JANUARY 18, 2013
[ °C ]   °F
Local TimeTemperatureDewpointHumidityBarometerVisibilityWind DirectionWind SpeedGust SpeedPrecipitationEventsConditions
1:54 AM39.9 °F33.1 °F77 %30.19 in10.0 miEast (80°)4.6 mphClear
2:54 AM41.0 °F33.1 °F73 %30.19 in10.0 miEast (90°)3.5 mphClear
3:54 AM39.9 °F32.0 °F73 %30.17 in10.0 miEast (100°)3.5 mphClear
4:54 AM42.1 °F30.0 °F62 %30.16 in10.0 miSE (130°)3.5 mphClear
5:54 AM42.1 °F30.0 °F62 %30.16 in10.0 miEast (100°)3.5 mphClear
6:54 AM39.0 °F28.9 °F67 %30.17 in10.0 miCalmClear
7:54 AM39.9 °F30.0 °F68 %30.19 in10.0 miCalmClear
8:54 AM46.9 °F32.0 °F56 %30.22 in10.0 miEast (100°)4.6 mphClear
9:54 AM55.9 °F35.1 °F45 %30.23 in10.0 miCalmClear
10:54 AM60.1 °F36.0 °F41 %30.22 in10.0 miCalmClear
11:54 AM61.0 °F33.1 °F35 %30.20 in10.0 miCalmClear
12:54 PM64.9 °F28.0 °F25 %30.17 in10.0 miCalmClear
1:54 PM66.9 °F30.0 °F25 %30.16 in10.0 miNW (320°)3.5 mphClear
2:54 PM66.9 °F30.0 °F25 %30.16 in10.0 miNW (320°)3.5 mphClear
3:54 PM64.9 °F30.0 °F27 %30.16 in10.0 miCalmClear
4:54 PM62.1 °F35.1 °F37 %30.16 in10.0 miCalmClear
5:54 PM54.0 °F33.1 °F45 %30.17 in10.0 miEast (90°)4.6 mphClear
6:54 PM48.9 °F32.0 °F52 %30.17 in10.0 miEast (80°)3.5 mphClear
7:54 PM46.9 °F32.0 °F56 %30.17 in10.0 miEast (100°)4.6 mphClear
8:54 PM45.0 °F32.0 °F60 %30.18 in10.0 miEast (100°)3.5 mphClear
9:54 PM46.0 °F33.1 °F61 %30.19 in10.0 miEast (80°)3.5 mphClear
10:54 PM45.0 °F33.1 °F63 %30.18 in10.0 miEast (100°)5.8 mphClear
11:54 PM43.0 °F33.1 °F68 %30.17 in10.0 miEast (100°)4.6 mphClear
Hourly data recorded from KMRY, located miles away from Pacific Grove, California







STORIES FROM OUR PARTNERS